Location: Unspecified
(0.0000°N, 0.0000°E)
Time: 07:00:32
(UTC+02:00)

Cosmos 1892 Rocket - Visible Passes

Search period start: 30 May 2016 00:00
Search period end: 09 June 2016 00:00
Orbit: 607 x 633 km, 82.5° (Epoch: 29 May)

Date Brightness Start Highest point End Pass type
(mag) Time Alt. Az. Time Alt. Az. Time Alt. Az.
30 May 5.2 21:30:03 10° SSW 21:34:03 34° W 21:38:02 10° NNW visible
31 May 6.5 21:49:09 10° WSW 21:51:42 15° W 21:54:14 10° NW visible
01 Jun 3.8 20:27:30 10° SSE 20:31:45 47° E 20:36:00 10° NNE visible
02 Jun 3.8 20:45:00 10° S 20:49:24 72° W 20:53:49 10° N visible
03 Jun 5.6 21:03:10 10° SSW 21:07:03 30° W 21:10:57 10° NNW visible
04 Jun 6.7 21:22:31 10° WSW 21:24:42 13° W 21:26:52 10° WNW visible
06 Jun 4.2 20:18:01 10° SSW 20:22:24 64° W 20:26:48 10° N visible
07 Jun 6.0 20:36:18 10° SW 20:40:03 27° W 20:43:49 10° NNW visible
08 Jun 6.6 07:08:29 10° NE 07:11:18 17° E 07:14:07 10° SE visible
08 Jun 6.9 20:56:02 10° WSW 20:57:42 12° W 20:59:23 10° WNW visible
